STARLINK-37603, 69846

Orbit data source: Space-Track

STARLINK-37603, 69846 is a payload satellite owned by SpaceX/Seattle (US) in LEO that was launched on Sun, 05 Jul 2026 UTC via an FALCON 9 launch vehicle from the Air Force Eastern Test Range (AFETR). Payload-class satellites include a variety of spacecraft equipped with specific instruments for various scientific and technological missions. These include communications satellites like Starlink; space stations such as the ISS; scientific satellites like the Hubble; Earth observation satellites from companies like Planet Labs, Umbra, and HawkEye 360; GPS; miniature CubeSats for education and research; and military/defense satellites.

Loading next visibility...
Identifier
69846, 2026-154AD
Orbit
LEO
Country
Flag of USUS
Related business
Manufacturer
SpaceX/Seattle
Mission
Operational spacecraft
Bus & Motor
STARLINK V2MO, Unknown motor
Mass
575 kg wet, ~530 kg dry
Launch date (UTC)
2026-07-05 (2 months ago)
Launch vehicle
FALCON 9
Launch site
Air Force Eastern Test Range (AFETR)
Object type
Payload
Rocket body
Debris
Shape & HBR
BOX + PAN, 17.7 m
Radar Cross Section
Large (>1 m²)

Expand to show TLE details & history
Last TLE update: 6 hours ago

TLE from 6 hours ago
0 STARLINK-37603
1 69846U 26154AD  26254.71517413  .00018491  00000-0  55704-3 0  9996
2 69846  53.1609  12.4551 0000905  94.7588 265.3518 15.34401131 11894
Epoch: 2026-09-11T17:09Z
TLE epoch observation values (Epoch: 2026-09-11T17:09:51.044Z)
Latitude
-0.00004°
Longitude
124.25784°
Altitude
463.652 km
Speed
7.636 km/s
True Right ascension
00h 49m 49s
True Declination
0° 00' 00"
Sunlit
Object was in full shadow at epoch
Visualization orbit readout
Latitude
Unknown
Longitude
Unknown
Altitude
Unknown
Speed
Unknown
Apparent Right ascension
Unknown
Apparent Declination
Unknown
Sunlit
N/A
Visualization observer readout
Local Sidereal Time
16:00:00
Azimuth
Unknown
Elevation
Unknown
Doppler factor
Unknown
Orbital elements
Apogee altitude
463.576 km
Perigee altitude
462.337 km
Semi-major axis
6,841.094 km
Eccentricity
0.00009
Inclination
53.1609°
RAAN
12.4551°
Arg. of periapsis
94.7588°
True anomaly
265.34146°
Mean anomaly
265.3518°
Eccentric anomaly
265.34663°
Mean motion
3.83579 °/min
Orbital period
93.85 mins
BSTAR
0.00055704
Loading maneuver chart data...
Computing Atmospheric mass density...
Loading historical data...
Loading historical data...
Loading historical data...
Loading historical data...
Loading historical data...
Loading historical data...
Loading historical data...

Documentation

Showing up to 5 results
|